Regional Weather Roundup
Issued by NWS

Home | Current Version | Previous Version | Graphics & Text | Print | Product List | Glossary On
Versions: 1 2 3 4 5 6 7 8 9 10 11 12 13 14 15 16 17 18 19 20 21 22 23 24 25 26 27 28 29 30 31 32 33 34 35 36 37 38 39 40 41 42 43 44 45 46 47 48 49 50
694
ASUS45 KBOU 191907
RWRCO

WEATHER ROUNDUP FOR COLORADO
NATIONAL WEATHER SERVICE DENVER/BOULDER CO
100 PM MDT TUE SEP 19 2017

NOTE: "FAIR" INDICATES FEW OR NO CLOUDS BELOW 12000 FEET WITH NO
SIGNIFICANT WEATHER AND/OR OBSTRUCTIONS TO VISIBILITY.

COZ001>005-013-030-031-192000-
...NORTHWEST COLORADO...

CITY           SKY/WX    TMP DP  RH WIND       PRES   REMARKS
CRAIG          PTSUNNY   72  21  14 W26G40    29.78F
HAYDEN         FAIR      70  24  17 SW29G48   29.78F
MEEKER         FAIR      72  22  15 SW21G38   29.82F
RABBIT EARS PA CLOUDY    48  27  43 W12G23    30.01S
STEAMBOAT SPGS PTSUNNY   67  24  19 SW16G30   29.80F
WALDEN         FAIR      63  19  19 SW29G44   29.86F
$$

COZ006>008-011-192000-
...WEST CENTRAL VALLEYS...

CITY           SKY/WX    TMP DP  RH WIND       PRES   REMARKS
GRAND JUNCTION FAIR      79  25  13 SW10      29.78F
MONTROSE       FAIR      74  21  13 SW13G23   29.89F
EAGLE          FAIR      71  21  15 SW24G36   29.85F
RIFLE          FAIR      78  21  12 SW22G32   29.79F
DELTA          FAIR      80  21  11 SW20G30   29.85F
NUCLA          FAIR      73  19  13 SW21G37   29.97F
$$

COZ017>023-064>068-192000-
...SOUTHWEST COLORADO...

CITY           SKY/WX    TMP DP  RH WIND       PRES   REMARKS
DURANGO        FAIR      69  22  16 SW16G22   30.05F
CORTEZ         FAIR      74  22  14 SW13G22   30.00F
PAGOSA SPRINGS FAIR      65  13  13 SW10G18   30.11F
TELLURIDE      FAIR      63  16  15 SE10G17   30.12F
WOLF CREEK PAS FAIR      41  18  38 S32G48    30.28F
$$

COZ009-010-012-014-032>034-037-058>063-192000-
...CENTRAL COLORADO...

CITY           SKY/WX    TMP DP  RH WIND       PRES   REMARKS
ASPEN          FAIR      70  14  11 SE6G14    29.89F
BUENA VISTA    FAIR      71   3   7 SW14G31   29.90F
COPPER MTN     FAIR      55   5  13 W22G35    30.12F
BERTHOUD PASS  FAIR      45  37  76 W41G59    30.11S
COTTONWOOD PAS FAIR      63 -18   3 W17G55    30.00F
GUNNISON       FAIR      69  14  12 W24G35    29.94F
KREMMLING      FAIR      79  10   7 W23G29    29.86S
LEADVILLE      FAIR      61   7  11 SW14G35   30.00F
MONARCH PASS   FAIR      48  10  21 W52G63    30.25F
SALIDA         FAIR      75  13   9 SW18G24   29.98F
SUNLIGHT       FAIR      54  23  30 SW16G36   30.10S
WILKERSON PASS FAIR      54   0  11 SW24G38   30.08F
$$

COZ069>075-192000-
...SAN LUIS VALLEY/SANGRE DE CRISTO MOUNTAINS...

CITY           SKY/WX    TMP DP  RH WIND       PRES   REMARKS
ALAMOSA        FAIR      66  18  15 SW24G30   30.00F
DEL NORTE      FAIR      65  19  17 SW29G38   30.01R
LA VETA PASS   FAIR      54  14  20 S38G60    30.17F
SAGUACHE       FAIR      70  27  19 SE5       29.94F
$$

COZ035-036-038>040-192000-
...NORTHERN COLORADO FRONT RANGE...

CITY           SKY/WX    TMP DP  RH WIND       PRES   REMARKS
DENVER INTL AP PTSUNNY   83  11   6 SW7G17    29.64F
DMNS CITY PARK   N/A     83  20  10 E7G18     29.62F
AURORA         PTSUNNY   83  13   7 SE8G17    29.66F
FRONT RANGE AP NOT AVBL
ERIE MUNI ARPT FAIR      84  12   6 SE7       29.67F
BOULDER MUN AP FAIR      82  23  11 E7        29.63F
CENTENNIAL     PTSUNNY   83   6   5 S8G17     29.66F
BROOMFIELD     PTSUNNY   82  18   9 SE5       29.67F
FORT COLLINS   FAIR      82  25  12 CALM      29.63F HAZE
LONGMONT       FAIR      86  25  10 E8        29.63F
$$

COZ041-046-047-076>085-087-088-192000-
...PIKES PEAK/PALMER DIVIDE AND SOUTHERN FOOTHILLS...

CITY           SKY/WX    TMP DP  RH WIND       PRES   REMARKS
COLO. SPRINGS  PTSUNNY   79  19  10 S24G30    29.77F
A. F. ACADEMY  FAIR      79  12   8 S14G21    29.76F
SCHRIEVER AFB  FAIR      75  15  10 SW24G32   29.78F
CHEYENNE MTN   NOT AVBL
ELLICOTT       NOT AVBL
FALCON         FAIR      74  17  11 S17G28    29.82F
FORT CARSON    FAIR      79  11   7 S16G31    29.75F
LIMON          FAIR      78  18  10 S23       29.71F
MONUMENT HILL  FAIR      75  21  13 S21G26    29.80F
CANON CITY     SUNNY     82  21  10 S5        29.73F
WALSENBURG     FAIR      77  18  10 SW26G41   29.84R
TRINIDAD       FAIR      74  28  18 SW6       29.84F
$$

COZ042>045-048>051-090-091-192000-
...NORTHEAST COLORADO...

CITY           SKY/WX    TMP DP  RH WIND       PRES   REMARKS
GREELEY ARPT   FAIR      84  36  18 VRB6      29.62F
AKRON          FAIR      84  18   8 SW14      29.64F
BURLINGTON     FAIR      87  26  11 SW20      29.66F
WRAY           FAIR      91  21   8 SW17G25   29.60F
YUMA           FAIR      82  12   7 SW14      29.61F
STERLING       FAIR      77  41  27 S5        29.60F
HOLYOKE        FAIR      82  37  20 S5        29.61F
FORT MORGAN    FAIR      77  33  20 E3        29.63F
$$

COZ086-089-092>099-192000-
...SOUTHEAST COLORADO...

CITY           SKY/WX    TMP DP  RH WIND       PRES   REMARKS
PUEBLO         FAIR      83  17   8 S10G16    29.70F
LA JUNTA       FAIR      85  19   9 W31G39    29.71S
LAMAR          FAIR      94  20   7 SW13      29.64F
SPRINGFIELD      N/A     88  21   8 SW20G29   29.73
$$




USA.gov is the U.S. government's official web portal to all federal, state and local government web resources and services.